This is the latest recevied weather packets stored in our database for station/object N5SRF. If no packets are shown the sender has not sent any weather packets the latest 10 day(s).
| Time | Temp. | Humidity | Pressure | Rain* | Wind** | Luminosity | Snow |
|---|---|---|---|---|---|---|---|
| 1777992866 | 24.44° C | 89% | 1013.3 hPa | 0 mm | - | 233 W/m² | - |
| 1777992564 | 24.44° C | 91% | 1013.3 hPa | 0 mm | - | 247 W/m² | - |
| 1777992262 | 23.89° C | 92% | 1013.1 hPa | 0 mm | - | 231 W/m² | - |
| 1777991959 | 23.89° C | 91% | 1013.2 hPa | 0 mm | - | 145 W/m² | - |
| 1777991657 | 23.89° C | 91% | 1013.5 hPa | 0 mm | - | 95 W/m² | - |
| 1777991353 | 23.89° C | 91% | 1013.3 hPa | 0 mm | - | 108 W/m² | - |
| 1777991051 | 23.89° C | 91% | 1013.4 hPa | 0 mm | - | 144 W/m² | - |
| 1777990748 | 23.89° C | 91% | 1013.4 hPa | 0 mm | - | 118 W/m² | - |
| 1777990444 | 23.89° C | 91% | 1013.4 hPa | 0 mm | - | 115 W/m² | - |
| 1777989832 | 23.89° C | 92% | 1013 hPa | 0 mm | - | 147 W/m² | - |
| 1777989529 | 23.89° C | 91% | 1013.2 hPa | 0 mm | - | 175 W/m² | - |
| 1777989226 | 23.33° C | 94% | 1012.8 hPa | 0 mm | - | 224 W/m² | - |
| 1777988922 | 22.78° C | 94% | 1012.8 hPa | 0 mm | - | 161 W/m² | - |
| 1777988619 | 22.78° C | 94% | 1013 hPa | 0 mm | - | 99 W/m² | - |
| 1777988315 | 22.78° C | 95% | 1013.1 hPa | 0 mm | - | 88 W/m² | - |
| 1777988012 | 22.22° C | 95% | 1013.3 hPa | 0 mm | - | 76 W/m² | - |
| 1777987708 | 22.78° C | 94% | 1013.4 hPa | 0 mm | - | 41 W/m² | - |
| 1777987405 | 22.78° C | 94% | 1013.5 hPa | 0 mm | - | 36 W/m² | - |
| 1777987102 | 22.78° C | 94% | 1013.4 hPa | 0 mm | - | 69 W/m² | - |
| 1777986800 | 22.22° C | 94% | 1013.3 hPa | 0 mm | - | 84 W/m² | - |
| 1777986497 | 22.22° C | 94% | 1013.4 hPa | 0 mm | - | 63 W/m² | - |
| 1777986195 | 22.22° C | 95% | 1013.1 hPa | 0 mm | - | 45 W/m² | - |
| 1777985892 | 22.22° C | 95% | 1013.2 hPa | 0 mm | - | 62 W/m² | - |
| 1777985590 | 22.22° C | 95% | 1013 hPa | 0 mm | - | 101 W/m² | - |
| 1777985286 | 22.22° C | 95% | 1012.8 hPa | 0 mm | - | 88 W/m² | - |
* Rain latest hour (hover to see other rain measurements)
** Current wind speed in m/s (hover to see current wind gust speed)